When you browse on this site, cookies collect data to enhance your experience and personalize the content and advertising you see.
Visit our Privacy Policy to learn more. By continuing to use the site, you agree to this use of cookies and data.
  • In Denmark
  • List of Countries
  • For 7 days
  • Water Temperature
  • Weather Map
  • Weather Widgets
  • user-avatar
    Login

    Hourly Weather Gloucester

    Today, 18 August, Sunday

    Time Temperature Precipitation Wind Pressure Humidity
    00:00 +12°C° 0 mm 3 mps 746 mmHg 90%
    01:00 +12°C° 0 mm 3 mps 746 mmHg 90%
    02:00 +13°C° 0 mm 3 mps 746 mmHg 89%
    03:00 +13°C° 0 mm 3 mps 746 mmHg 88%
    04:00 +13°C° 0 mm 3 mps 746 mmHg 89%
    05:00 +13°C° 0 mm 3 mps 745 mmHg 90%
    06:00 +13°C° 0 mm 3 mps 745 mmHg 91%
    07:00 +14°C° 0.5 mm 4 mps 746 mmHg 85%
    08:00 +15°C° 0.5 mm 5 mps 746 mmHg 80%
    09:00 +16°C° 0.5 mm 7 mps 746 mmHg 75%
    10:00 +16°C° 0.1 mm 7 mps 746 mmHg 71%
    11:00 +17°C° 0.1 mm 8 mps 747 mmHg 68%
    12:00 +18°C° 0.1 mm 8 mps 747 mmHg 64%
    13:00 +18°C° 0.1 mm 8 mps 747 mmHg 63%
    14:00 +18°C° 0.1 mm 8 mps 747 mmHg 62%
    15:00 +18°C° 0.1 mm 9 mps 748 mmHg 61%
    16:00 +17°C° 0 mm 8 mps 748 mmHg 64%
    17:00 +16°C° 0 mm 7 mps 748 mmHg 68%
    18:00 +15°C° 0 mm 6 mps 748 mmHg 71%
    19:00 +14°C° 0 mm 6 mps 749 mmHg 74%
    20:00 +13°C° 0 mm 6 mps 749 mmHg 77%
    21:00 +12°C° 0 mm 5 mps 749 mmHg 80%
    22:00 +12°C° 0 mm 5 mps 750 mmHg 82%
    23:00 +12°C° 0 mm 5 mps 750 mmHg 85%

    Tomorrow, 19 August, Monday

    Time Temperature Precipitation Wind Pressure Humidity
    00:00 +12°C° 0 mm 5 mps 750 mmHg 87%
    01:00 +12°C° 0 mm 4 mps 751 mmHg 89%
    02:00 +12°C° 0 mm 4 mps 751 mmHg 91%
    03:00 +12°C° 0 mm 3 mps 751 mmHg 93%
    04:00 +11°C° 0 mm 3 mps 752 mmHg 93%
    05:00 +12°C° 0 mm 2 mps 752 mmHg 93%
    06:00 +12°C° 0 mm 2 mps 752 mmHg 93%
    07:00 +13°C° 0 mm 3 mps 753 mmHg 86%
    08:00 +14°C° 0 mm 3 mps 753 mmHg 79%
    09:00 +17°C° 0 mm 4 mps 753 mmHg 72%
    10:00 +16°C° 0.3 mm 5 mps 754 mmHg 70%
    11:00 +17°C° 0.3 mm 6 mps 754 mmHg 69%
    12:00 +17°C° 0.3 mm 7 mps 754 mmHg 68%
    13:00 +18°C° 0.1 mm 7 mps 754 mmHg 65%
    14:00 +18°C° 0.1 mm 7 mps 755 mmHg 62%
    15:00 +18°C° 0.1 mm 7 mps 755 mmHg 59%
    16:00 +17°C° 0.1 mm 6 mps 755 mmHg 63%
    17:00 +16°C° 0.1 mm 5 mps 755 mmHg 68%
    18:00 +15°C° 0.1 mm 4 mps 756 mmHg 72%
    19:00 +14°C° 0 mm 4 mps 756 mmHg 77%
    20:00 +13°C° 0 mm 4 mps 757 mmHg 82%
    21:00 +11°C° 0 mm 3 mps 757 mmHg 87%
    22:00 +11°C° 0 mm 3 mps 758 mmHg 88%
    23:00 +10°C° 0 mm 3 mps 758 mmHg 89%

    Day after tomorrow, 20 August, Tuesday

    Time Temperature Precipitation Wind Pressure Humidity
    00:00 +10°C° 0 mm 2 mps 758 mmHg 91%
    01:00 +10°C° 0 mm 2 mps 758 mmHg 91%
    02:00 +10°C° 0 mm 2 mps 759 mmHg 91%
    03:00 +9°C° 0 mm 2 mps 759 mmHg 91%
    04:00 +9°C° 0 mm 2 mps 759 mmHg 91%
    05:00 +9°C° 0 mm 2 mps 759 mmHg 90%
    06:00 +9°C° 0 mm 2 mps 760 mmHg 90%
    07:00 +12°C° 0 mm 2 mps 760 mmHg 83%
    08:00 +13°C° 0 mm 3 mps 760 mmHg 77%
    09:00 +15°C° 0 mm 4 mps 761 mmHg 70%
    10:00 +17°C° 0.1 mm 4 mps 761 mmHg 68%
    11:00 +17°C° 0.1 mm 5 mps 761 mmHg 67%
    12:00 +19°C° 0.1 mm 5 mps 761 mmHg 66%
    13:00 +19°C° 0.4 mm 5 mps 761 mmHg 67%
    14:00 +19°C° 0.4 mm 6 mps 761 mmHg 67%
    15:00 +19°C° 0.4 mm 6 mps 761 mmHg 68%
    16:00 +19°C° 0.2 mm 6 mps 762 mmHg 72%
    17:00 +17°C° 0.2 mm 5 mps 762 mmHg 75%
    18:00 +17°C° 0.2 mm 4 mps 762 mmHg 79%
    19:00 +15°C° 0 mm 4 mps 762 mmHg 84%
    20:00 +14°C° 0 mm 3 mps 763 mmHg 88%
    21:00 +13°C° 0 mm 3 mps 763 mmHg 93%
    22:00 +13°C° 0 mm 2 mps 763 mmHg 94%
    23:00 +13°C° 0 mm 2 mps 763 mmHg 94%

    21 August, Wednesday

    Time Temperature Precipitation Wind Pressure Humidity
    00:00 +13°C° 0 mm 2 mps 763 mmHg 94%
    01:00 +13°C° 0 mm 2 mps 763 mmHg 95%
    02:00 +13°C° 0 mm 2 mps 763 mmHg 95%
    03:00 +13°C° 0 mm 2 mps 763 mmHg 96%
    04:00 +13°C° 0 mm 2 mps 763 mmHg 95%
    05:00 +13°C° 0 mm 2 mps 763 mmHg 95%
    06:00 +13°C° 0 mm 2 mps 763 mmHg 95%
    07:00 +14°C° 0 mm 3 mps 763 mmHg 90%
    08:00 +16°C° 0 mm 3 mps 763 mmHg 84%
    09:00 +17°C° 0 mm 4 mps 763 mmHg 79%
    10:00 +18°C° 0.1 mm 4 mps 763 mmHg 74%
    11:00 +19°C° 0.1 mm 5 mps 763 mmHg 69%
    12:00 +20°C° 0.1 mm 5 mps 763 mmHg 64%
    13:00 +20°C° 0 mm 5 mps 762 mmHg 63%
    14:00 +20°C° 0 mm 5 mps 762 mmHg 62%
    15:00 +20°C° 0 mm 5 mps 762 mmHg 61%
    16:00 +19°C° 0 mm 4 mps 762 mmHg 66%
    17:00 +19°C° 0 mm 4 mps 762 mmHg 70%
    18:00 +18°C° 0 mm 3 mps 762 mmHg 74%
    19:00 +17°C° 0 mm 3 mps 762 mmHg 78%
    20:00 +14°C° 0 mm 3 mps 762 mmHg 82%
    21:00 +13°C° 0 mm 3 mps 762 mmHg 86%
    22:00 +14°C° 0 mm 2 mps 762 mmHg 88%
    23:00 +13°C° 0 mm 2 mps 762 mmHg 90%

    22 August, Thursday

    Time Temperature Precipitation Wind Pressure Humidity
    00:00 +13°C° 0 mm 2 mps 762 mmHg 93%
    01:00 +13°C° 0 mm 2 mps 762 mmHg 93%
    02:00 +12°C° 0 mm 2 mps 762 mmHg 93%
    03:00 +11°C° 0 mm 3 mps 762 mmHg 94%
    04:00 +12°C° 0 mm 3 mps 762 mmHg 93%
    05:00 +12°C° 0 mm 3 mps 762 mmHg 93%
    06:00 +12°C° 0 mm 3 mps 762 mmHg 93%
    07:00 +13°C° 0 mm 4 mps 762 mmHg 89%
    08:00 +15°C° 0 mm 4 mps 763 mmHg 85%
    09:00 +16°C° 0 mm 5 mps 763 mmHg 81%
    10:00 +17°C° 0 mm 5 mps 763 mmHg 78%
    11:00 +19°C° 0 mm 5 mps 763 mmHg 75%
    12:00 +20°C° 0 mm 5 mps 762 mmHg 73%
    13:00 +20°C° 0.1 mm 5 mps 762 mmHg 72%
    14:00 +21°C° 0.1 mm 5 mps 762 mmHg 71%
    15:00 +21°C° 0.1 mm 5 mps 762 mmHg 70%
    16:00 +21°C° 0 mm 4 mps 762 mmHg 73%
    17:00 +20°C° 0 mm 4 mps 762 mmHg 76%
    18:00 +20°C° 0 mm 3 mps 762 mmHg 79%
    19:00 +18°C° 0 mm 3 mps 762 mmHg 84%
    20:00 +17°C° 0 mm 2 mps 763 mmHg 88%
    21:00 +15°C° 0 mm 2 mps 763 mmHg 93%
    22:00 +15°C° 0 mm 1 mps 763 mmHg 93%
    23:00 +15°C° 0 mm 1 mps 763 mmHg 93%

    23 August, Friday

    Time Temperature Precipitation Wind Pressure Humidity
    00:00 +14°C° 0 mm 1 mps 763 mmHg 93%
    01:00 +14°C° 0 mm 1 mps 762 mmHg 94%
    02:00 +14°C° 0 mm 1 mps 762 mmHg 94%
    03:00 +12°C° 0 mm 0 mps 762 mmHg 94%
    04:00 +13°C° 0 mm 0 mps 762 mmHg 94%
    05:00 +13°C° 0 mm 0 mps 762 mmHg 93%
    06:00 +13°C° 0 mm 0 mps 762 mmHg 93%
    07:00 +16°C° 0 mm 1 mps 762 mmHg 87%
    08:00 +19°C° 0 mm 1 mps 762 mmHg 80%
    09:00 +20°C° 0 mm 1 mps 762 mmHg 74%
    10:00 +20°C° 0 mm 2 mps 762 mmHg 70%
    11:00 +23°C° 0 mm 2 mps 761 mmHg 65%
    12:00 +24°C° 0 mm 2 mps 761 mmHg 61%
    13:00 +24°C° 0 mm 3 mps 760 mmHg 59%
    14:00 +25°C° 0 mm 3 mps 760 mmHg 58%
    15:00 +25°C° 0 mm 3 mps 760 mmHg 56%
    16:00 +24°C° 0 mm 3 mps 759 mmHg 58%
    17:00 +24°C° 0 mm 2 mps 759 mmHg 61%
    18:00 +23°C° 0 mm 2 mps 759 mmHg 64%
    19:00 +20°C° 0 mm 2 mps 758 mmHg 65%
    20:00 +19°C° 0 mm 1 mps 758 mmHg 66%
    21:00 +16°C° 0 mm 1 mps 758 mmHg 66%
    22:00 +15°C° 0 mm 1 mps 758 mmHg 68%
    23:00 +15°C° 0 mm 1 mps 758 mmHg 69%
    Show more